TimeHST,TemperatureF,Dew PointF,Humidity,Sea Level PressureIn,VisibilityMPH,Wind Direction,Wind SpeedMPH,Gust SpeedMPH,PrecipitationIn,Events,Conditions,WindDirDegrees,DateUTC
12:56 AM,73.9,50.0,43,29.96,10.0,Calm,Calm,-,N/A,,Clear,0,2012-11-04 10:56:00
1:56 AM,73.0,50.0,44,29.95,10.0,Calm,Calm,-,N/A,,Clear,0,2012-11-04 11:56:00
2:56 AM,73.0,51.1,46,29.94,10.0,SE,4.6,-,N/A,,Partly Cloudy,140,2012-11-04 12:56:00
3:56 AM,73.9,48.0,40,29.94,10.0,East,12.7,-,N/A,,Overcast,90,2012-11-04 13:56:00
4:56 AM,75.0,48.0,38,29.93,10.0,East,5.8,-,N/A,,Overcast,90,2012-11-04 14:56:00
5:56 AM,75.9,48.0,37,29.94,10.0,ESE,5.8,-,N/A,,Clear,120,2012-11-04 15:56:00
6:56 AM,75.9,48.0,37,29.95,10.0,ESE,5.8,-,N/A,,Clear,120,2012-11-04 16:56:00
7:56 AM,78.1,48.9,36,29.97,10.0,SE,6.9,-,N/A,,Clear,130,2012-11-04 17:56:00
8:56 AM,81.0,45.0,28,29.98,10.0,SE,8.1,-,N/A,,Clear,130,2012-11-04 18:56:00
9:56 AM,82.0,50.0,33,29.99,10.0,SE,9.2,-,N/A,,Scattered Clouds,140,2012-11-04 19:56:00
10:56 AM,82.0,17.1,9,29.99,10.0,South,8.1,-,N/A,,Clear,180,2012-11-04 20:56:00
11:56 AM,82.9,1.9,4,29.98,10.0,South,9.2,-,N/A,,Clear,180,2012-11-04 21:56:00
12:56 PM,84.0,-9999,N/A,29.95,10.0,South,11.5,16.1,N/A,,Clear,180,2012-11-04 22:56:00
1:56 PM,82.9,-7.1,4,29.93,10.0,South,11.5,-,N/A,,Clear,180,2012-11-04 23:56:00
2:56 PM,82.0,24.1,12,29.93,10.0,SSW,9.2,-,N/A,,Overcast,200,2012-11-05 00:56:00
3:56 PM,82.0,30.0,15,29.93,10.0,SSW,6.9,-,N/A,,Overcast,200,2012-11-05 01:56:00
4:56 PM,81.0,28.0,14,29.94,10.0,Variable,6.9,-,N/A,,Partly Cloudy,0,2012-11-05 02:56:00
5:56 PM,80.1,52.0,38,29.96,10.0,South,4.6,-,N/A,,Clear,180,2012-11-05 03:56:00
6:56 PM,78.1,52.0,40,29.97,10.0,SSE,3.5,-,N/A,,Clear,150,2012-11-05 04:56:00
7:56 PM,75.9,46.9,36,29.98,10.0,SSE,3.5,-,N/A,,Clear,150,2012-11-05 05:56:00
8:56 PM,75.0,46.0,36,29.99,10.0,East,3.5,-,N/A,,Clear,100,2012-11-05 06:56:00
9:56 PM,75.0,46.9,37,30.00,10.0,East,3.5,-,N/A,,Clear,80,2012-11-05 07:56:00
10:56 PM,73.9,44.1,34,29.99,10.0,East,3.5,-,N/A,,Clear,100,2012-11-05 08:56:00
11:56 PM,73.9,45.0,35,29.98,10.0,East,3.5,-,N/A,,Clear,80,2012-11-05 09:56:00